This is the latest recevied weather packets stored in our database for station/object OE9FWV-10. If no packets are shown the sender has not sent any weather packets the latest 10 day(s).
| Time | Temp. | Humidity | Pressure | Rain* | Wind** | Luminosity | Snow |
|---|---|---|---|---|---|---|---|
| 1787786622 | 29.44° C | 33% | 1018.2 hPa | - | - | - | - |
| 1787785722 | 28.89° C | 33% | 1018.4 hPa | - | - | - | - |
| 1787784822 | 29.44° C | 33% | 1018.3 hPa | - | - | - | - |
| 1787783922 | 29.44° C | 33% | 1018.3 hPa | - | - | - | - |
| 1787783022 | 29.44° C | 32% | 1018.2 hPa | - | - | - | - |
| 1787782122 | 30° C | 31% | 1018.1 hPa | - | - | - | - |
| 1787781222 | 30° C | 31% | 1018.2 hPa | - | - | - | - |
| 1787780322 | 30° C | 31% | 1018.1 hPa | - | - | - | - |
| 1787779422 | 30° C | 32% | 1018.2 hPa | - | - | - | - |
| 1787778522 | 28.89° C | 32% | 1018.2 hPa | - | - | - | - |
| 1787776721 | 28.89° C | 33% | 1018.4 hPa | - | - | - | - |
| 1787775821 | 29.44° C | 33% | 1018.5 hPa | - | - | - | - |
| 1787774921 | 29.44° C | 32% | 1018.7 hPa | - | - | - | - |
| 1787774021 | 30° C | 32% | 1018.8 hPa | - | - | - | - |
| 1787773121 | 29.44° C | 32% | 1018.8 hPa | - | - | - | - |
| 1787772221 | 31.11° C | 31% | 1018.8 hPa | - | - | - | - |
| 1787771321 | 31.67° C | 30% | 1018.8 hPa | - | - | - | - |
| 1787770421 | 31.67° C | 30% | 1018.6 hPa | - | - | - | - |
| 1787769521 | 31.67° C | 29% | 1018.5 hPa | - | - | - | - |
| 1787768621 | 32.22° C | 28% | 1018.4 hPa | - | - | - | - |
| 1787767721 | 32.22° C | 28% | 1018.4 hPa | - | - | - | - |
| 1787766821 | 32.22° C | 28% | 1018.3 hPa | - | - | - | - |
| 1787765921 | 32.22° C | 28% | 1018.2 hPa | - | - | - | - |
| 1787765020 | 32.78° C | 27% | 1018.2 hPa | - | - | - | - |
| 1787764120 | 32.78° C | 27% | 1018.4 hPa | - | - | - | - |
* Rain since midnight (hover to see other rain measurements)
** Current wind speed in m/s (hover to see current wind gust speed)